Location: Cahas Mountain Overlook
(37.0833°N, 80.1000°W)
Time: 03:34:45
(UTC-05:00)

Vanguard 1 Rocket - All Passes

Search period start: 05 December 2023 00:00
Search period end: 15 December 2023 00:00
Orbit: 656 x 4218 km, 34.3° (Epoch: 04 December)

Date Brightness Start Highest point End Pass type
(mag) Time Alt. Az. Time Alt. Az. Time Alt. Az.
05 Dec - 01:45:26 10° S 02:04:29 27° SE 02:19:36 10° E visible
05 Dec - 04:11:20 10° SW 04:34:47 55° SSE 04:48:43 10° E visible
05 Dec - 06:44:09 10° WSW 07:04:07 77° S 07:14:02 10° E visible
05 Dec - 09:18:02 10° W 09:31:16 66° SSW 09:38:00 10° ESE daylight
05 Dec - 11:50:04 10° W 11:55:27 20° SW 11:59:22 10° S daylight
06 Dec - 00:36:39 10° SSE 00:50:15 17° SE 01:02:32 10° ESE visible
06 Dec - 02:57:12 10° SSW 03:20:26 45° SSE 03:36:17 10° E visible
06 Dec - 05:27:49 10° WSW 05:50:39 71° SSE 06:02:45 10° E visible
06 Dec - 08:02:12 10° W 08:19:05 77° S 08:27:21 10° ESE daylight
06 Dec - 10:35:05 10° W 10:44:39 38° SW 10:50:15 10° SSE daylight
07 Dec - 01:44:40 10° SSW 02:05:57 34° SE 02:22:45 10° E visible
07 Dec - 04:12:07 10° SW 04:36:33 63° SSE 04:51:02 10° E visible
07 Dec - 06:45:43 10° W 07:06:12 80° S 07:16:22 10° E visible
07 Dec - 09:19:51 10° W 09:33:17 59° SSW 09:40:12 10° SE daylight
07 Dec - 11:53:07 10° WSW 11:57:04 14° SW 12:00:13 10° SSW daylight
08 Dec - 00:34:17 10° S 00:51:36 23° SE 01:07:09 10° E visible
08 Dec - 02:57:34 10° SW 03:22:00 52° SSE 03:38:43 10° E visible
08 Dec - 05:29:09 10° WSW 05:52:35 76° S 06:05:02 10° E visible
08 Dec - 08:03:54 10° W 08:21:10 74° SSW 08:29:38 10° ESE daylight
08 Dec - 10:37:12 10° W 10:46:25 31° SW 10:51:59 10° SSE daylight
08 Dec - 23:28:54 10° SSE 23:37:36 13° SE 23:46:10 10° ESE visible
09 Dec - 01:44:28 10° SSW 02:07:18 41° SE 02:25:27 10° E visible
09 Dec - 04:13:09 10° WSW 04:38:18 69° SSE 04:53:18 10° E visible
09 Dec - 06:47:20 10° W 07:08:14 80° S 07:18:39 10° E visible
09 Dec - 09:21:40 10° W 09:35:11 51° SSW 09:42:15 10° SE daylight
10 Dec - 00:33:10 10° S 00:52:49 29° SE 01:10:39 10° E visible
10 Dec - 02:58:15 10° SW 03:23:32 59° SSE 03:40:59 10° E visible
10 Dec - 05:30:37 10° WSW 05:54:31 80° S 06:07:18 10° E visible
10 Dec - 08:05:37 10° W 08:23:10 69° SSW 08:31:51 10° ESE daylight
10 Dec - 10:39:29 10° W 10:48:00 25° SW 10:53:28 10° S daylight
10 Dec - 23:24:45 10° SSE 23:38:46 18° SE 23:52:45 10° E visible
11 Dec - 01:44:43 10° SSW 02:08:36 48° SE 02:27:53 10° E visible
11 Dec - 04:14:23 10° WSW 04:40:03 74° SSE 04:55:31 10° E visible
11 Dec - 06:48:59 10° W 07:10:15 79° S 07:20:55 10° ESE visible
11 Dec - 09:23:30 10° W 09:36:56 44° SW 09:44:10 10° SE daylight
12 Dec - 00:32:48 10° SSW 00:53:55 36° SE 01:13:31 10° E visible
12 Dec - 02:59:12 10° SW 03:25:04 66° SSE 03:43:11 10° E visible
12 Dec - 05:32:10 10° W 05:56:26 81° S 06:09:33 10° E visible
12 Dec - 08:07:17 10° W 08:25:03 63° SSW 08:33:57 10° SE daylight
12 Dec - 10:42:06 10° W 10:49:26 19° SW 10:54:33 10° S daylight
12 Dec - 23:23:00 10° S 23:39:47 24° SE 23:57:00 10° E visible
13 Dec - 01:45:20 10° SW 02:09:53 55° SSE 02:30:07 10° E visible
13 Dec - 04:15:47 10° WSW 04:41:49 79° S 04:57:42 10° E visible
13 Dec - 06:50:36 10° W 07:12:11 76° SSW 07:23:07 10° ESE visible
13 Dec - 09:25:25 10° W 09:38:31 37° SW 09:45:53 10° SSE daylight
13 Dec - 22:18:07 10° SE 22:26:16 13° SE 22:34:49 10° ESE visible
14 Dec - 00:32:57 10° SSW 00:54:58 43° SE 01:16:00 10° E visible
14 Dec - 03:00:23 10° WSW 03:26:36 72° SSE 03:45:19 10° E visible
14 Dec - 05:33:46 10° W 05:58:20 81° S 06:11:46 10° E visible
14 Dec - 08:08:57 10° W 08:26:46 56° SSW 08:35:56 10° SE daylight
14 Dec - 10:45:20 10° W 10:50:45 14° SW 10:54:56 10° SSW daylight
